{"data":{"norad_id":53867,"epoch":"2026-05-25T04:00:03.998880Z","epoch_age_seconds":60350,"freshness":"FRESH","line1":"1 53867U 22114BB  26145.16671295 -.00689844  00000+0 -22850-1 0  9992","line2":"2 53867  53.2168 285.9341 0000747  72.9328  57.3150 15.33272959  5728","mean_motion":15.33272959,"eccentricity":7.47e-5,"inclination_deg":53.2168,"raan_deg":285.9341,"arg_perigee_deg":72.9328,"mean_anomaly_deg":57.315,"bstar":-0.02285,"rev_number":572,"period_min":93.91674140912,"perigee_km":465.54383416516,"apogee_km":466.5663564642,"semimajor_km":6844.1920953147,"source":"CELESTRAK","updated_at":"2026-05-25T13:38:17.579914Z"}}